Time,TemperatureF,DewpointF,PressureIn,WindDirection,WindDirectionDegrees,WindSpeedMPH,WindSpeedGustMPH,Humidity,HourlyPrecipIn,Conditions,Clouds,dailyrainin,SoftwareType,DateUTC
2013-06-14 00:02:00,64.5,59.6,30.00,East,89,8.0,9.0,84,0.00,,,0.00,Wunderground v.1.15,2013-06-14 05:02:00,
2013-06-14 00:03:00,64.5,59.6,30.00,East,86,8.0,9.0,84,0.00,,,0.00,Wunderground v.1.15,2013-06-14 05:03:00,
2013-06-14 00:05:00,64.4,59.5,30.00,ENE,71,8.0,9.0,84,0.00,,,0.00,Wunderground v.1.15,2013-06-14 05:05:00,
2013-06-14 00:08:00,64.3,59.4,30.00,ENE,74,8.0,9.0,84,0.00,,,0.00,Wunderground v.1.15,2013-06-14 05:08:00,
2013-06-14 00:14:00,64.3,59.4,30.00,East,94,9.0,10.0,84,0.00,,,0.00,Wunderground v.1.15,2013-06-14 05:14:00,
2013-06-14 00:16:00,64.2,59.3,30.00,East,86,9.0,10.0,84,0.00,,,0.00,Wunderground v.1.15,2013-06-14 05:16:00,
2013-06-14 00:18:00,64.1,59.2,30.00,East,86,9.0,10.0,84,0.00,,,0.00,Wunderground v.1.15,2013-06-14 05:18:00,
2013-06-14 00:22:00,63.9,59.3,30.00,East,94,9.0,9.0,85,0.00,,,0.00,Wunderground v.1.15,2013-06-14 05:22:00,
2013-06-14 00:28:00,63.5,59.2,30.00,East,96,8.0,9.0,86,0.00,,,0.00,Wunderground v.1.15,2013-06-14 05:28:00,
2013-06-14 00:30:00,63.4,59.1,30.00,East,98,7.0,7.0,86,0.00,,,0.00,Wunderground v.1.15,2013-06-14 05:30:00,
2013-06-14 00:32:00,63.3,59.4,30.00,ENE,74,7.0,7.0,87,0.00,,,0.00,Wunderground v.1.15,2013-06-14 05:32:00,
2013-06-14 00:36:00,63.0,59.1,30.00,East,82,6.0,7.0,87,0.00,,,0.00,Wunderground v.1.15,2013-06-14 05:36:00,
2013-06-14 00:38:00,62.9,59.3,30.00,East,100,6.0,7.0,88,0.00,,,0.00,Wunderground v.1.15,2013-06-14 05:38:00,
2013-06-14 00:39:00,62.8,59.2,30.00,East,101,6.0,6.0,88,0.00,,,0.00,Wunderground v.1.15,2013-06-14 05:39:00,
2013-06-14 00:41:00,62.8,59.2,30.00,East,92,6.0,7.0,88,0.00,,,0.00,Wunderground v.1.15,2013-06-14 05:41:00,
2013-06-14 00:44:00,62.7,59.1,30.00,East,92,6.0,7.0,88,0.00,,,0.00,Wunderground v.1.15,2013-06-14 05:44:00,
2013-06-14 00:46:00,62.6,59.0,30.00,ENE,78,6.0,7.0,88,0.00,,,0.00,Wunderground v.1.15,2013-06-14 05:46:00,
2013-06-14 00:48:00,62.6,59.0,30.01,ENE,77,5.0,7.0,88,0.00,,,0.00,Wunderground v.1.15,2013-06-14 05:48:00,
2013-06-14 00:53:00,62.5,58.9,30.00,East,80,5.0,7.0,88,0.00,,,0.00,Wunderground v.1.15,2013-06-14 05:53:00,
2013-06-14 01:00:00,62.5,58.6,30.01,ENE,77,6.0,6.0,87,0.00,,,0.00,Wunderground v.1.15,2013-06-14 06:00:00,
2013-06-14 01:02:00,62.4,58.5,30.01,East,82,6.0,7.0,87,0.00,,,0.00,Wunderground v.1.15,2013-06-14 06:02:00,
2013-06-14 01:06:00,62.4,58.5,30.01,ENE,65,5.0,7.0,87,0.00,,,0.00,Wunderground v.1.15,2013-06-14 06:06:00,
2013-06-14 01:08:00,62.3,58.4,30.01,ENE,58,5.0,7.0,87,0.00,,,0.00,Wunderground v.1.15,2013-06-14 06:08:00,
2013-06-14 01:09:00,62.3,58.4,30.01,NE,54,5.0,7.0,87,0.00,,,0.00,Wunderground v.1.15,2013-06-14 06:09:00,
2013-06-14 01:12:00,62.2,58.3,30.01,ENE,78,5.0,7.0,87,0.00,,,0.00,Wunderground v.1.15,2013-06-14 06:12:00,
2013-06-14 01:14:00,62.2,58.6,30.01,NE,45,5.0,7.0,88,0.00,,,0.00,Wunderground v.1.15,2013-06-14 06:14:00,
2013-06-14 01:18:00,61.9,58.3,30.02,NE,47,6.0,8.0,88,0.00,,,0.00,Wunderground v.1.15,2013-06-14 06:18:00,
2013-06-14 01:20:00,61.8,58.2,30.02,NE,44,6.0,6.0,88,0.00,,,0.00,Wunderground v.1.15,2013-06-14 06:20:00,
2013-06-14 01:22:00,61.7,58.4,30.02,NE,45,6.0,7.0,89,0.00,,,0.00,Wunderground v.1.15,2013-06-14 06:22:00,
2013-06-14 01:24:00,61.5,58.2,30.01,NNE,29,5.0,7.0,89,0.00,,,0.00,Wunderground v.1.15,2013-06-14 06:24:00,
2013-06-14 01:26:00,61.3,58.3,30.01,NNE,29,5.0,7.0,90,0.00,,,0.00,Wunderground v.1.15,2013-06-14 06:26:00,
2013-06-14 01:28:00,61.2,58.2,30.01,NNE,26,5.0,7.0,90,0.00,,,0.00,Wunderground v.1.15,2013-06-14 06:28:00,
2013-06-14 01:31:00,61.2,57.6,30.02,NE,52,5.0,8.0,88,0.00,,,0.00,Wunderground v.1.15,2013-06-14 06:31:00,
2013-06-14 01:34:00,61.2,57.6,30.02,NE,44,6.0,8.0,88,0.00,,,0.00,Wunderground v.1.15,2013-06-14 06:34:00,
2013-06-14 01:36:00,61.3,57.4,30.02,NE,44,7.0,8.0,87,0.00,,,0.00,Wunderground v.1.15,2013-06-14 06:36:00,
2013-06-14 01:40:00,61.3,56.8,30.02,ENE,60,7.0,7.0,85,0.00,,,0.00,Wunderground v.1.15,2013-06-14 06:40:00,
2013-06-14 01:42:00,61.2,56.3,30.02,ENE,67,7.0,7.0,84,0.00,,,0.00,Wunderground v.1.15,2013-06-14 06:42:00,
2013-06-14 01:48:00,61.1,56.2,30.02,East,82,7.0,7.0,84,0.00,,,0.00,Wunderground v.1.15,2013-06-14 06:48:00,
2013-06-14 01:49:00,61.0,56.1,30.03,NNE,19,7.0,7.0,84,0.00,,,0.00,Wunderground v.1.15,2013-06-14 06:49:00,
2013-06-14 01:54:00,60.8,55.9,30.03,NE,34,7.0,7.0,84,0.00,,,0.00,Wunderground v.1.15,2013-06-14 06:54:00,
2013-06-14 01:56:00,60.7,56.2,30.03,ENE,74,6.0,7.0,85,0.00,,,0.00,Wunderground v.1.15,2013-06-14 06:56:00,
2013-06-14 01:58:00,60.6,56.1,30.03,NE,34,6.0,7.0,85,0.00,,,0.00,Wunderground v.1.15,2013-06-14 06:58:00,
2013-06-14 02:00:00,60.5,56.0,30.03,East,88,6.0,6.0,85,0.00,,,0.00,Wunderground v.1.15,2013-06-14 07:00:00,
2013-06-14 02:02:00,60.4,55.9,30.03,ENE,58,6.0,7.0,85,0.00,,,0.00,Wunderground v.1.15,2013-06-14 07:02:00,
2013-06-14 02:06:00,60.3,55.8,30.03,NE,49,7.0,8.0,85,0.00,,,0.00,Wunderground v.1.15,2013-06-14 07:06:00,
2013-06-14 02:08:00,60.2,55.7,30.03,ENE,59,7.0,8.0,85,0.00,,,0.00,Wunderground v.1.15,2013-06-14 07:08:00,
2013-06-14 02:09:00,60.2,55.3,30.03,NE,49,7.0,8.0,84,0.00,,,0.00,Wunderground v.1.15,2013-06-14 07:09:00,
2013-06-14 02:14:00,60.1,55.2,30.03,ENE,60,8.0,9.0,84,0.00,,,0.00,Wunderground v.1.15,2013-06-14 07:14:00,
2013-06-14 02:16:00,60.0,55.2,30.03,ENE,67,8.0,9.0,84,0.00,,,0.00,Wunderground v.1.15,2013-06-14 07:16:00,
2013-06-14 02:19:00,59.8,55.3,30.03,ENE,58,7.0,7.0,85,0.00,,,0.00,Wunderground v.1.15,2013-06-14 07:19:00,
2013-06-14 02:22:00,59.7,55.2,30.03,NNE,15,7.0,7.0,85,0.00,,,0.00,Wunderground v.1.15,2013-06-14 07:22:00,
2013-06-14 02:25:00,59.5,55.3,30.03,ENE,58,6.0,7.0,86,0.00,,,0.00,Wunderground v.1.15,2013-06-14 07:25:00,
2013-06-14 02:30:00,59.3,55.1,30.03,NE,50,6.0,7.0,86,0.00,,,0.00,Wunderground v.1.15,2013-06-14 07:30:00,
2013-06-14 02:34:00,59.1,55.2,30.03,ENE,75,6.0,7.0,87,0.00,,,0.00,Wunderground v.1.15,2013-06-14 07:34:00,
2013-06-14 02:36:00,59.0,55.1,30.03,ENE,68,6.0,7.0,87,0.00,,,0.00,Wunderground v.1.15,2013-06-14 07:36:00,
2013-06-14 02:38:00,59.0,55.1,30.03,NE,41,6.0,7.0,87,0.00,,,0.00,Wunderground v.1.15,2013-06-14 07:38:00,
2013-06-14 02:40:00,58.9,55.0,30.03,NE,40,6.0,6.0,87,0.00,,,0.00,Wunderground v.1.15,2013-06-14 07:40:00,
2013-06-14 02:42:00,58.9,55.0,30.03,NE,56,6.0,7.0,87,0.00,,,0.00,Wunderground v.1.15,2013-06-14 07:42:00,
2013-06-14 02:43:00,58.9,55.0,30.03,NE,47,6.0,7.0,87,0.00,,,0.00,Wunderground v.1.15,2013-06-14 07:43:00,
2013-06-14 02:45:00,58.9,54.7,30.03,NE,45,7.0,7.0,86,0.00,,,0.00,Wunderground v.1.15,2013-06-14 07:45:00,
2013-06-14 02:48:00,58.8,54.6,30.03,East,97,7.0,7.0,86,0.00,,,0.00,Wunderground v.1.15,2013-06-14 07:48:00,
2013-06-14 02:51:00,58.8,54.9,30.03,NE,34,7.0,9.0,87,0.00,,,0.00,Wunderground v.1.15,2013-06-14 07:51:00,
2013-06-14 02:54:00,58.7,54.8,30.03,NE,50,7.0,10.0,87,0.00,,,0.00,Wunderground v.1.15,2013-06-14 07:54:00,
2013-06-14 02:56:00,58.7,54.8,30.03,ENE,75,8.0,10.0,87,0.00,,,0.00,Wunderground v.1.15,2013-06-14 07:56:00,
2013-06-14 03:01:00,58.6,54.7,30.03,ENE,57,8.0,12.0,87,0.00,,,0.00,Wunderground v.1.15,2013-06-14 08:01:00,
2013-06-14 03:04:00,58.6,54.4,30.03,ENE,58,9.0,12.0,86,0.00,,,0.00,Wunderground v.1.15,2013-06-14 08:04:00,
2013-06-14 03:08:00,58.6,54.4,30.03,NE,42,9.0,12.0,86,0.00,,,0.00,Wunderground v.1.15,2013-06-14 08:08:00,
2013-06-14 03:10:00,58.5,54.3,30.03,NE,43,9.0,9.0,86,0.00,,,0.00,Wunderground v.1.15,2013-06-14 08:10:00,
2013-06-14 03:14:00,58.4,54.5,30.03,NE,37,9.0,9.0,87,0.00,,,0.00,Wunderground v.1.15,2013-06-14 08:14:00,
2013-06-14 03:16:00,58.3,54.4,30.03,NE,47,8.0,9.0,87,0.00,,,0.00,Wunderground v.1.15,2013-06-14 08:16:00,
2013-06-14 03:18:00,58.3,54.4,30.03,NE,42,8.0,9.0,87,0.00,,,0.00,Wunderground v.1.15,2013-06-14 08:18:00,
2013-06-14 03:21:00,58.2,54.3,30.04,NE,41,7.0,7.0,87,0.00,,,0.00,Wunderground v.1.15,2013-06-14 08:21:00,
2013-06-14 03:24:00,58.1,54.2,30.04,ESE,102,6.0,7.0,87,0.00,,,0.00,Wunderground v.1.15,2013-06-14 08:24:00,
2013-06-14 03:26:00,58.1,54.2,30.04,NE,50,5.0,7.0,87,0.00,,,0.00,Wunderground v.1.15,2013-06-14 08:26:00,
2013-06-14 03:30:00,58.0,54.2,30.04,NE,41,5.0,7.0,87,0.00,,,0.00,Wunderground v.1.15,2013-06-14 08:30:00,
2013-06-14 03:32:00,58.0,54.2,30.04,NE,45,5.0,7.0,87,0.00,,,0.00,Wunderground v.1.15,2013-06-14 08:32:00,
2013-06-14 03:33:00,58.0,54.2,30.04,NE,47,5.0,7.0,87,0.00,,,0.00,Wunderground v.1.15,2013-06-14 08:33:00,
2013-06-14 03:40:00,57.8,54.0,30.04,NNE,18,6.0,6.0,87,0.00,,,0.00,Wunderground v.1.15,2013-06-14 08:40:00,
2013-06-14 03:41:00,57.7,53.9,30.04,NE,50,6.0,7.0,87,0.00,,,0.00,Wunderground v.1.15,2013-06-14 08:41:00,
2013-06-14 03:44:00,57.7,53.9,30.04,ENE,63,6.0,7.0,87,0.00,,,0.00,Wunderground v.1.15,2013-06-14 08:44:00,
2013-06-14 03:46:00,57.6,53.8,30.04,NE,37,6.0,7.0,87,0.00,,,0.00,Wunderground v.1.15,2013-06-14 08:46:00,
2013-06-14 03:50:00,57.5,54.0,30.04,ENE,58,5.0,5.0,88,0.00,,,0.00,Wunderground v.1.15,2013-06-14 08:50:00,
2013-06-14 03:54:00,57.3,53.8,30.05,NE,49,4.0,7.0,88,0.00,,,0.00,Wunderground v.1.15,2013-06-14 08:54:00,
2013-06-14 03:58:00,57.2,53.7,30.04,NE,41,4.0,7.0,88,0.00,,,0.00,Wunderground v.1.15,2013-06-14 08:58:00,
2013-06-14 03:59:00,57.2,53.7,30.05,East,84,4.0,4.0,88,0.00,,,0.00,Wunderground v.1.15,2013-06-14 08:59:00,
2013-06-14 04:01:00,57.2,53.7,30.05,East,81,4.0,7.0,88,0.00,,,0.00,Wunderground v.1.15,2013-06-14 09:01:00,
2013-06-14 04:06:00,57.1,53.6,30.04,NNE,32,4.0,7.0,88,0.00,,,0.00,Wunderground v.1.15,2013-06-14 09:06:00,
2013-06-14 04:08:00,57.1,53.6,30.04,NE,40,4.0,7.0,88,0.00,,,0.00,Wunderground v.1.15,2013-06-14 09:08:00,
2013-06-14 04:10:00,57.0,53.5,30.04,NE,53,4.0,7.0,88,0.00,,,0.00,Wunderground v.1.15,2013-06-14 09:10:00,
2013-06-14 04:13:00,57.0,53.5,30.04,ENE,60,4.0,7.0,88,0.00,,,0.00,Wunderground v.1.15,2013-06-14 09:13:00,
2013-06-14 04:18:00,56.8,53.3,30.05,East,81,3.0,7.0,88,0.00,,,0.00,Wunderground v.1.15,2013-06-14 09:18:00,
2013-06-14 04:19:00,56.7,53.2,30.04,ENE,60,3.0,7.0,88,0.00,,,0.00,Wunderground v.1.15,2013-06-14 09:19:00,
2013-06-14 04:24:00,56.6,53.4,30.05,NE,44,3.0,7.0,89,0.00,,,0.00,Wunderground v.1.15,2013-06-14 09:24:00,
2013-06-14 04:26:00,56.6,53.4,30.05,ENE,58,3.0,7.0,89,0.00,,,0.00,Wunderground v.1.15,2013-06-14 09:26:00,
2013-06-14 04:28:00,56.5,53.3,30.05,ENE,59,3.0,7.0,89,0.00,,,0.00,Wunderground v.1.15,2013-06-14 09:28:00,
2013-06-14 04:32:00,56.4,53.2,30.05,NNE,33,2.0,7.0,89,0.00,,,0.00,Wunderground v.1.15,2013-06-14 09:32:00,
2013-06-14 04:34:00,56.3,53.1,30.05,NE,45,2.0,7.0,89,0.00,,,0.00,Wunderground v.1.15,2013-06-14 09:34:00,
2013-06-14 04:36:00,56.2,53.0,30.05,NNE,25,2.0,7.0,89,0.00,,,0.00,Wunderground v.1.15,2013-06-14 09:36:00,
2013-06-14 04:38:00,56.2,53.0,30.05,NNE,27,2.0,7.0,89,0.00,,,0.00,Wunderground v.1.15,2013-06-14 09:38:00,
2013-06-14 04:44:00,56.0,53.1,30.05,NE,34,2.0,7.0,90,0.00,,,0.00,Wunderground v.1.15,2013-06-14 09:44:00,
2013-06-14 04:46:00,56.1,53.2,30.05,NNE,29,2.0,7.0,90,0.00,,,0.00,Wunderground v.1.15,2013-06-14 09:46:00,
2013-06-14 04:48:00,56.1,53.2,30.05,NNE,27,3.0,7.0,90,0.00,,,0.00,Wunderground v.1.15,2013-06-14 09:48:00,
2013-06-14 04:50:00,56.0,53.1,30.05,NNE,25,3.0,3.0,90,0.00,,,0.00,Wunderground v.1.15,2013-06-14 09:50:00,
2013-06-14 04:52:00,55.9,53.0,30.05,NNE,20,3.0,7.0,90,0.00,,,0.00,Wunderground v.1.15,2013-06-14 09:52:00,
2013-06-14 04:56:00,55.8,52.9,30.05,NNE,20,2.0,7.0,90,0.00,,,0.00,Wunderground v.1.15,2013-06-14 09:56:00,
2013-06-14 05:00:00,55.7,52.8,30.05,NNE,20,1.0,7.0,90,0.00,,,0.00,Wunderground v.1.15,2013-06-14 10:00:00,
2013-06-14 05:02:00,55.6,52.7,30.06,NNE,20,1.0,7.0,90,0.00,,,0.00,Wunderground v.1.15,2013-06-14 10:02:00,
2013-06-14 05:03:00,55.6,52.7,30.06,NNE,20,1.0,7.0,90,0.00,,,0.00,Wunderground v.1.15,2013-06-14 10:03:00,
2013-06-14 05:05:00,55.6,52.7,30.06,NNE,20,1.0,7.0,90,0.00,,,0.00,Wunderground v.1.15,2013-06-14 10:05:00,
2013-06-14 05:08:00,55.7,52.8,30.06,NNE,20,1.0,7.0,90,0.00,,,0.00,Wunderground v.1.15,2013-06-14 10:08:00,
2013-06-14 05:10:00,55.6,52.7,30.06,NNE,20,1.0,7.0,90,0.00,,,0.00,Wunderground v.1.15,2013-06-14 10:10:00,
2013-06-14 05:14:00,55.6,53.0,30.06,NNE,19,2.0,7.0,91,0.00,,,0.00,Wunderground v.1.15,2013-06-14 10:14:00,
2013-06-14 05:16:00,55.5,52.9,30.06,NNE,19,2.0,7.0,91,0.00,,,0.00,Wunderground v.1.15,2013-06-14 10:16:00,
2013-06-14 05:20:00,55.5,52.9,30.06,NNE,19,1.0,1.0,91,0.00,,,0.00,Wunderground v.1.15,2013-06-14 10:20:00,
2013-06-14 05:22:00,55.4,52.8,30.06,NNE,19,1.0,7.0,91,0.00,,,0.00,Wunderground v.1.15,2013-06-14 10:22:00,
2013-06-14 05:23:00,55.3,52.7,30.06,NNE,19,1.0,7.0,91,0.00,,,0.00,Wunderground v.1.15,2013-06-14 10:23:00,
2013-06-14 05:28:00,55.3,52.7,30.06,NNE,19,1.0,7.0,91,0.00,,,0.00,Wunderground v.1.15,2013-06-14 10:28:00,
2013-06-14 05:30:00,55.3,52.7,30.06,NNE,19,1.0,7.0,91,0.00,,,0.00,Wunderground v.1.15,2013-06-14 10:30:00,
2013-06-14 05:34:00,55.3,52.7,30.06,NNE,19,1.0,7.0,91,0.00,,,0.00,Wunderground v.1.15,2013-06-14 10:34:00,
2013-06-14 05:36:00,55.4,52.8,30.06,NNE,19,1.0,7.0,91,0.00,,,0.00,Wunderground v.1.15,2013-06-14 10:36:00,
2013-06-14 05:39:00,55.4,52.5,30.06,NNE,19,1.0,1.0,90,0.00,,,0.00,Wunderground v.1.15,2013-06-14 10:39:00,
2013-06-14 05:46:00,55.5,52.9,30.07,NNE,19,0.0,7.0,91,0.00,,,0.00,Wunderground v.1.15,2013-06-14 10:46:00,
2013-06-14 05:48:00,55.5,52.6,30.07,SW,233,0.0,7.0,90,0.00,,,0.00,Wunderground v.1.15,2013-06-14 10:48:00,
2013-06-14 05:50:00,55.5,52.9,30.07,SW,233,0.0,7.0,91,0.00,,,0.00,Wunderground v.1.15,2013-06-14 10:50:00,
2013-06-14 05:52:00,55.7,53.1,30.07,SW,233,0.0,7.0,91,0.00,,,0.00,Wunderground v.1.15,2013-06-14 10:52:00,
2013-06-14 05:54:00,55.8,52.9,30.07,SW,233,0.0,7.0,90,0.00,,,0.00,Wunderground v.1.15,2013-06-14 10:54:00,
2013-06-14 05:55:00,55.9,53.0,30.07,SW,233,0.0,7.0,90,0.00,,,0.00,Wunderground v.1.15,2013-06-14 10:55:00,
2013-06-14 06:00:00,56.0,53.1,30.07,SW,236,0.0,7.0,90,0.00,,,0.00,Wunderground v.1.15,2013-06-14 11:00:00,
2013-06-14 06:02:00,56.0,53.1,30.07,WSW,238,1.0,7.0,90,0.00,,,0.00,Wunderground v.1.15,2013-06-14 11:02:00,
2013-06-14 06:06:00,56.2,53.3,30.08,West,264,1.0,7.0,90,0.00,,,0.00,Wunderground v.1.15,2013-06-14 11:06:00,
2013-06-14 06:08:00,56.4,53.2,30.08,West,267,1.0,7.0,89,0.00,,,0.00,Wunderground v.1.15,2013-06-14 11:08:00,
2013-06-14 06:09:00,56.5,53.3,30.08,West,262,1.0,1.0,89,0.00,,,0.00,Wunderground v.1.15,2013-06-14 11:09:00,
2013-06-14 06:14:00,56.9,53.7,30.07,West,262,1.0,7.0,89,0.00,,,0.00,Wunderground v.1.15,2013-06-14 11:14:00,
2013-06-14 06:20:00,57.1,53.9,30.08,West,259,1.0,7.0,89,0.00,,,0.00,Wunderground v.1.15,2013-06-14 11:20:00,
2013-06-14 06:22:00,57.1,53.9,30.08,West,278,1.0,7.0,89,0.00,,,0.00,Wunderground v.1.15,2013-06-14 11:22:00,
2013-06-14 06:24:00,57.1,53.9,30.08,West,277,1.0,7.0,89,0.00,,,0.00,Wunderground v.1.15,2013-06-14 11:24:00,
2013-06-14 06:26:00,57.1,53.9,30.08,WNW,283,2.0,7.0,89,0.00,,,0.00,Wunderground v.1.15,2013-06-14 11:26:00,
2013-06-14 06:28:00,57.2,54.0,30.08,WNW,297,2.0,7.0,89,0.00,,,0.00,Wunderground v.1.15,2013-06-14 11:28:00,
2013-06-14 06:33:00,57.5,54.6,30.08,NW,314,2.0,7.0,90,0.00,,,0.00,Wunderground v.1.15,2013-06-14 11:33:00,
2013-06-14 06:35:00,57.7,54.5,30.08,NW,321,2.0,7.0,89,0.00,,,0.00,Wunderground v.1.15,2013-06-14 11:35:00,
2013-06-14 06:38:00,57.9,54.7,30.08,NNW,335,1.0,7.0,89,0.00,,,0.00,Wunderground v.1.15,2013-06-14 11:38:00,
2013-06-14 06:42:00,58.2,54.7,30.08,NNW,344,2.0,7.0,88,0.00,,,0.00,Wunderground v.1.15,2013-06-14 11:42:00,
2013-06-14 06:44:00,58.4,54.9,30.08,North,359,2.0,7.0,88,0.00,,,0.00,Wunderground v.1.15,2013-06-14 11:44:00,
2013-06-14 06:46:00,58.6,55.1,30.08,NNW,338,2.0,7.0,88,0.00,,,0.00,Wunderground v.1.15,2013-06-14 11:46:00,
2013-06-14 06:50:00,58.9,55.0,30.08,NNW,328,2.0,2.0,87,0.00,,,0.00,Wunderground v.1.15,2013-06-14 11:50:00,
2013-06-14 06:52:00,59.0,54.5,30.08,NW,321,2.0,7.0,85,0.00,,,0.00,Wunderground v.1.15,2013-06-14 11:52:00,
2013-06-14 06:53:00,59.0,54.8,30.09,NW,304,2.0,7.0,86,0.00,,,0.00,Wunderground v.1.15,2013-06-14 11:53:00,
2013-06-14 07:00:00,59.2,54.7,30.09,NW,314,1.0,7.0,85,0.00,,,0.00,Wunderground v.1.15,2013-06-14 12:00:00,
2013-06-14 07:02:00,59.3,54.5,30.09,NW,311,1.0,7.0,84,0.00,,,0.00,Wunderground v.1.15,2013-06-14 12:02:00,
2013-06-14 07:04:00,59.4,54.6,30.09,NNW,333,1.0,7.0,84,0.00,,,0.00,Wunderground v.1.15,2013-06-14 12:04:00,
2013-06-14 07:08:00,59.6,54.4,30.09,NW,314,1.0,7.0,83,0.00,,,0.00,Wunderground v.1.15,2013-06-14 12:08:00,
2013-06-14 07:12:00,59.8,54.6,30.10,NW,314,1.0,7.0,83,0.00,,,0.00,Wunderground v.1.15,2013-06-14 12:12:00,
2013-06-14 07:16:00,59.9,53.7,30.10,NW,311,2.0,7.0,80,0.00,,,0.00,Wunderground v.1.15,2013-06-14 12:16:00,
2013-06-14 07:18:00,60.1,54.9,30.10,NNW,332,2.0,7.0,83,0.00,,,0.00,Wunderground v.1.15,2013-06-14 12:18:00,
2013-06-14 07:20:00,60.1,53.9,30.10,NW,311,2.0,7.0,80,0.00,,,0.00,Wunderground v.1.15,2013-06-14 12:20:00,
2013-06-14 07:24:00,60.3,54.1,30.10,NNW,338,3.0,7.0,80,0.00,,,0.00,Wunderground v.1.15,2013-06-14 12:24:00,
2013-06-14 07:26:00,60.5,54.3,30.10,North,355,3.0,7.0,80,0.00,,,0.00,Wunderground v.1.15,2013-06-14 12:26:00,
2013-06-14 07:28:00,60.6,54.0,30.10,North,353,3.0,7.0,79,0.00,,,0.00,Wunderground v.1.15,2013-06-14 12:28:00,
2013-06-14 07:30:00,60.7,54.5,30.11,NW,323,3.0,3.0,80,0.00,,,0.00,Wunderground v.1.15,2013-06-14 12:30:00,
2013-06-14 07:33:00,60.9,53.6,30.10,North,8,2.0,7.0,77,0.00,,,0.00,Wunderground v.1.15,2013-06-14 12:33:00,
2013-06-14 07:35:00,61.1,53.8,30.10,ENE,67,2.0,7.0,77,0.00,,,0.00,Wunderground v.1.15,2013-06-14 12:35:00,
2013-06-14 07:38:00,61.1,53.8,30.10,NNE,26,3.0,7.0,77,0.00,,,0.00,Wunderground v.1.15,2013-06-14 12:38:00,
2013-06-14 07:40:00,61.0,53.7,30.10,NNE,33,3.0,7.0,77,0.00,,,0.00,Wunderground v.1.15,2013-06-14 12:40:00,
2013-06-14 07:42:00,61.0,54.4,30.10,ENE,57,3.0,7.0,79,0.00,,,0.00,Wunderground v.1.15,2013-06-14 12:42:00,
2013-06-14 07:45:00,61.1,53.8,30.10,NNE,25,4.0,7.0,77,0.00,,,0.00,Wunderground v.1.15,2013-06-14 12:45:00,
2013-06-14 07:48:00,61.0,54.1,30.10,NNE,20,5.0,7.0,78,0.00,,,0.00,Wunderground v.1.15,2013-06-14 12:48:00,
2013-06-14 07:50:00,60.9,53.6,30.10,North,354,5.0,7.0,77,0.00,,,0.00,Wunderground v.1.15,2013-06-14 12:50:00,
2013-06-14 07:54:00,61.0,54.1,30.11,North,355,5.0,7.0,78,0.00,,,0.00,Wunderground v.1.15,2013-06-14 12:54:00,
2013-06-14 07:58:00,61.2,54.3,30.11,NNW,337,5.0,7.0,78,0.00,,,0.00,Wunderground v.1.15,2013-06-14 12:58:00,
2013-06-14 08:02:00,61.2,53.9,30.11,NNE,26,5.0,8.0,77,0.00,,,0.00,Wunderground v.1.15,2013-06-14 13:02:00,
2013-06-14 08:08:00,61.8,54.9,30.12,North,1,5.0,8.0,78,0.00,,,0.00,Wunderground v.1.15,2013-06-14 13:08:00,
2013-06-14 08:09:00,62.1,54.8,30.12,North,357,5.0,5.0,77,0.00,,,0.00,Wunderground v.1.15,2013-06-14 13:09:00,
2013-06-14 08:14:00,62.1,54.4,30.12,North,358,4.0,7.0,76,0.00,,,0.00,Wunderground v.1.15,2013-06-14 13:14:00,
2013-06-14 08:18:00,62.3,54.3,30.12,North,9,5.0,7.0,75,0.00,,,0.00,Wunderground v.1.15,2013-06-14 13:18:00,
2013-06-14 08:20:00,62.5,54.8,30.12,North,356,5.0,7.0,76,0.00,,,0.00,Wunderground v.1.15,2013-06-14 13:20:00,
2013-06-14 08:22:00,62.5,54.8,30.12,NNW,333,5.0,7.0,76,0.00,,,0.00,Wunderground v.1.15,2013-06-14 13:22:00,
2013-06-14 08:25:00,62.6,54.6,30.11,NNW,346,5.0,8.0,75,0.00,,,0.00,Wunderground v.1.15,2013-06-14 13:25:00,
2013-06-14 08:30:00,62.7,55.0,30.11,NNE,18,6.0,6.0,76,0.00,,,0.00,Wunderground v.1.15,2013-06-14 13:30:00,
2013-06-14 08:32:00,62.9,55.9,30.11,NNE,16,6.0,7.0,78,0.00,,,0.00,Wunderground v.1.15,2013-06-14 13:32:00,
2013-06-14 08:34:00,62.9,55.2,30.11,NNE,23,7.0,7.0,76,0.00,,,0.00,Wunderground v.1.15,2013-06-14 13:34:00,
2013-06-14 08:36:00,63.1,55.4,30.11,NNE,25,7.0,7.0,76,0.00,,,0.00,Wunderground v.1.15,2013-06-14 13:36:00,
2013-06-14 08:38:00,63.4,56.8,30.11,North,8,6.0,9.0,79,0.00,,,0.00,Wunderground v.1.15,2013-06-14 13:38:00,
2013-06-14 08:39:00,63.5,55.8,30.10,NNE,22,6.0,9.0,76,0.00,,,0.00,Wunderground v.1.15,2013-06-14 13:39:00,
2013-06-14 08:44:00,63.3,55.2,30.11,North,6,6.0,9.0,75,0.00,,,0.00,Wunderground v.1.15,2013-06-14 13:44:00,
2013-06-14 08:46:00,63.3,55.2,30.11,NNE,30,7.0,9.0,75,0.00,,,0.00,Wunderground v.1.15,2013-06-14 13:46:00,
2013-06-14 08:52:00,63.6,56.3,30.11,NNE,27,6.0,7.0,77,0.00,,,0.00,Wunderground v.1.15,2013-06-14 13:52:00,
2013-06-14 08:54:00,63.6,55.5,30.10,NE,44,6.0,7.0,75,0.00,,,0.00,Wunderground v.1.15,2013-06-14 13:54:00,
2013-06-14 08:56:00,63.8,56.4,30.10,NNE,24,5.0,7.0,77,0.00,,,0.00,Wunderground v.1.15,2013-06-14 13:56:00,
2013-06-14 08:59:00,64.0,55.5,30.10,North,359,6.0,6.0,74,0.00,,,0.00,Wunderground v.1.15,2013-06-14 13:59:00,
2013-06-14 09:01:00,64.2,56.8,30.11,NNE,25,6.0,7.0,77,0.00,,,0.00,Wunderground v.1.15,2013-06-14 14:01:00,
2013-06-14 09:08:00,64.9,56.8,30.11,North,350,5.0,7.0,75,0.00,,,0.00,Wunderground v.1.15,2013-06-14 14:08:00,
2013-06-14 09:12:00,64.8,56.3,30.11,NNE,18,4.0,7.0,74,0.00,,,0.00,Wunderground v.1.15,2013-06-14 14:12:00,
2013-06-14 09:13:00,64.9,56.4,30.11,NNE,33,4.0,7.0,74,0.00,,,0.00,Wunderground v.1.15,2013-06-14 14:13:00,
2013-06-14 09:15:00,64.9,57.2,30.11,ENE,58,5.0,7.0,76,0.00,,,0.00,Wunderground v.1.15,2013-06-14 14:15:00,
2013-06-14 09:21:00,65.1,57.0,30.11,ENE,75,5.0,7.0,75,0.00,,,0.00,Wunderground v.1.15,2013-06-14 14:21:00,
2013-06-14 09:24:00,65.2,57.4,30.11,NNE,19,5.0,7.0,76,0.00,,,0.00,Wunderground v.1.15,2013-06-14 14:24:00,
2013-06-14 09:28:00,65.6,58.2,30.11,North,358,5.0,7.0,77,0.00,,,0.00,Wunderground v.1.15,2013-06-14 14:28:00,
2013-06-14 09:30:00,65.9,58.5,30.11,North,8,5.0,7.0,77,0.00,,,0.00,Wunderground v.1.15,2013-06-14 14:30:00,
2013-06-14 09:33:00,66.2,58.0,30.10,ESE,105,5.0,7.0,75,0.00,,,0.00,Wunderground v.1.15,2013-06-14 14:33:00,
2013-06-14 09:35:00,66.0,56.7,30.10,NNE,29,5.0,7.0,72,0.00,,,0.00,Wunderground v.1.15,2013-06-14 14:35:00,
2013-06-14 09:38:00,66.0,57.5,30.10,NNE,15,5.0,7.0,74,0.00,,,0.00,Wunderground v.1.15,2013-06-14 14:38:00,
2013-06-14 09:44:00,66.0,57.5,30.09,NE,41,5.0,9.0,74,0.00,,,0.00,Wunderground v.1.15,2013-06-14 14:44:00,
2013-06-14 09:46:00,66.0,57.5,30.09,ENE,75,6.0,11.0,74,0.00,,,0.00,Wunderground v.1.15,2013-06-14 14:46:00,
2013-06-14 09:48:00,66.2,57.7,30.09,ENE,64,7.0,11.0,74,0.00,,,0.00,Wunderground v.1.15,2013-06-14 14:48:00,
2013-06-14 09:50:00,66.2,57.3,30.09,East,86,7.0,9.0,73,0.00,,,0.00,Wunderground v.1.15,2013-06-14 14:50:00,
2013-06-14 09:52:00,66.2,57.7,30.09,East,98,8.0,9.0,74,0.00,,,0.00,Wunderground v.1.15,2013-06-14 14:52:00,
2013-06-14 09:56:00,66.2,57.7,30.08,ENE,70,8.0,10.0,74,0.00,,,0.00,Wunderground v.1.15,2013-06-14 14:56:00,
2013-06-14 09:59:00,66.8,59.0,30.08,ENE,75,8.0,10.0,76,0.00,,,0.00,Wunderground v.1.15,2013-06-14 14:59:00,
2013-06-14 10:06:00,66.9,58.0,30.08,East,80,9.0,12.0,73,0.00,,,0.00,Wunderground v.1.15,2013-06-14 15:06:00,
2013-06-14 10:08:00,67.0,58.8,30.07,East,96,10.0,13.0,75,0.00,,,0.00,Wunderground v.1.15,2013-06-14 15:08:00,
2013-06-14 10:12:00,67.2,58.6,30.07,East,100,11.0,11.0,74,0.00,,,0.00,Wunderground v.1.15,2013-06-14 15:12:00,
2013-06-14 10:13:00,67.4,59.9,30.07,NE,47,10.0,11.0,77,0.00,,,0.00,Wunderground v.1.15,2013-06-14 15:13:00,
2013-06-14 10:20:00,67.5,58.2,30.07,NNE,12,9.0,9.0,72,0.00,,,0.00,Wunderground v.1.15,2013-06-14 15:20:00,
2013-06-14 10:21:00,67.7,59.5,30.07,East,96,9.0,9.0,75,0.00,,,0.00,Wunderground v.1.15,2013-06-14 15:21:00,
2013-06-14 10:26:00,67.8,58.4,30.07,East,79,10.0,10.0,72,0.00,,,0.00,Wunderground v.1.15,2013-06-14 15:26:00,
2013-06-14 10:30:00,67.6,58.2,30.07,ENE,59,10.0,11.0,72,0.00,,,0.00,Wunderground v.1.15,2013-06-14 15:30:00,
2013-06-14 10:32:00,67.7,59.5,30.07,ENE,73,10.0,11.0,75,0.00,,,0.00,Wunderground v.1.15,2013-06-14 15:32:00,
2013-06-14 10:33:00,68.1,59.5,30.07,East,84,10.0,11.0,74,0.00,,,0.00,Wunderground v.1.15,2013-06-14 15:33:00,
2013-06-14 10:38:00,68.2,59.2,30.07,NE,47,9.0,12.0,73,0.00,,,0.00,Wunderground v.1.15,2013-06-14 15:38:00,
2013-06-14 10:39:00,68.3,58.9,30.07,NE,51,9.0,9.0,72,0.00,,,0.00,Wunderground v.1.15,2013-06-14 15:39:00,
2013-06-14 10:44:00,68.6,59.6,30.07,ESE,109,9.0,9.0,73,0.00,,,0.00,Wunderground v.1.15,2013-06-14 15:44:00,
2013-06-14 10:46:00,68.9,60.6,30.06,East,84,9.0,13.0,75,0.00,,,0.00,Wunderground v.1.15,2013-06-14 15:46:00,
2013-06-14 10:48:00,68.8,59.4,30.06,ENE,78,9.0,16.0,72,0.00,,,0.00,Wunderground v.1.15,2013-06-14 15:48:00,
2013-06-14 10:50:00,68.8,59.8,30.05,ENE,75,10.0,12.0,73,0.00,,,0.00,Wunderground v.1.15,2013-06-14 15:50:00,
2013-06-14 10:52:00,68.8,59.4,30.05,East,80,11.0,12.0,72,0.00,,,0.00,Wunderground v.1.15,2013-06-14 15:52:00,
2013-06-14 10:53:00,68.8,59.8,30.05,East,96,11.0,14.0,73,0.00,,,0.00,Wunderground v.1.15,2013-06-14 15:53:00,
2013-06-14 10:59:00,69.2,59.4,30.05,East,86,12.0,13.0,71,0.00,,,0.00,Wunderground v.1.15,2013-06-14 15:59:00,
2013-06-14 11:01:00,69.2,59.4,30.05,ENE,67,12.0,13.0,71,0.00,,,0.00,Wunderground v.1.15,2013-06-14 16:01:00,
2013-06-14 11:06:00,69.3,59.5,30.06,East,100,12.0,13.0,71,0.00,,,0.00,Wunderground v.1.15,2013-06-14 16:06:00,
2013-06-14 11:08:00,69.5,59.7,30.05,ESE,105,12.0,14.0,71,0.00,,,0.00,Wunderground v.1.15,2013-06-14 16:08:00,
2013-06-14 11:10:00,69.7,60.3,30.05,ESE,109,12.0,12.0,72,0.00,,,0.00,Wunderground v.1.15,2013-06-14 16:10:00,
2013-06-14 11:12:00,69.9,60.8,30.05,East,82,11.0,13.0,73,0.00,,,0.00,Wunderground v.1.15,2013-06-14 16:12:00,
2013-06-14 11:13:00,69.8,59.6,30.05,East,80,11.0,13.0,70,0.00,,,0.00,Wunderground v.1.15,2013-06-14 16:13:00,
2013-06-14 11:18:00,69.6,59.0,30.05,ENE,65,11.0,13.0,69,0.00,,,0.00,Wunderground v.1.15,2013-06-14 16:18:00,
2013-06-14 11:19:00,69.7,59.1,30.05,East,96,11.0,11.0,69,0.00,,,0.00,Wunderground v.1.15,2013-06-14 16:19:00,
2013-06-14 11:21:00,69.9,59.3,30.05,ENE,64,11.0,11.0,69,0.00,,,0.00,Wunderground v.1.15,2013-06-14 16:21:00,
2013-06-14 11:24:00,69.9,59.3,30.06,ESE,112,10.0,11.0,69,0.00,,,0.00,Wunderground v.1.15,2013-06-14 16:24:00,
2013-06-14 11:26:00,70.0,59.4,30.06,East,94,11.0,11.0,69,0.00,,,0.00,Wunderground v.1.15,2013-06-14 16:26:00,
2013-06-14 11:30:00,70.4,60.9,30.06,ESE,103,10.0,11.0,72,0.00,,,0.00,Wunderground v.1.15,2013-06-14 16:30:00,
2013-06-14 11:32:00,70.6,61.1,30.06,ENE,62,10.0,11.0,72,0.00,,,0.00,Wunderground v.1.15,2013-06-14 16:32:00,
2013-06-14 11:34:00,70.5,58.6,30.06,East,98,9.0,11.0,66,0.00,,,0.00,Wunderground v.1.15,2013-06-14 16:34:00,
2013-06-14 11:36:00,70.6,59.9,30.06,ENE,76,8.0,11.0,69,0.00,,,0.00,Wunderground v.1.15,2013-06-14 16:36:00,
2013-06-14 11:38:00,70.8,58.9,30.06,ESE,106,8.0,11.0,66,0.00,,,0.00,Wunderground v.1.15,2013-06-14 16:38:00,
2013-06-14 11:39:00,70.8,58.9,30.06,East,86,7.0,10.0,66,0.00,,,0.00,Wunderground v.1.15,2013-06-14 16:39:00,
2013-06-14 11:44:00,71.3,60.6,30.07,ESE,113,6.0,10.0,69,0.00,,,0.00,Wunderground v.1.15,2013-06-14 16:44:00,
2013-06-14 11:46:00,71.7,60.2,30.07,ESE,117,7.0,10.0,67,0.00,,,0.00,Wunderground v.1.15,2013-06-14 16:46:00,
2013-06-14 11:50:00,71.8,61.1,30.07,ENE,68,6.0,6.0,69,0.00,,,0.00,Wunderground v.1.15,2013-06-14 16:50:00,
2013-06-14 11:52:00,71.9,59.5,30.07,ESE,117,6.0,7.0,65,0.00,,,0.00,Wunderground v.1.15,2013-06-14 16:52:00,
2013-06-14 11:53:00,71.8,59.0,30.08,SE,128,6.0,7.0,64,0.00,,,0.00,Wunderground v.1.15,2013-06-14 16:53:00,
2013-06-14 11:56:00,71.8,59.4,30.08,ESE,118,6.0,7.0,65,0.00,,,0.00,Wunderground v.1.15,2013-06-14 16:56:00,
2013-06-14 12:00:00,71.9,58.2,30.09,East,100,5.0,5.0,62,0.00,,,0.00,Wunderground v.1.15,2013-06-14 17:00:00,
2013-06-14 12:02:00,72.1,59.2,30.09,SE,143,4.0,7.0,64,0.00,,,0.00,Wunderground v.1.15,2013-06-14 17:02:00,
2013-06-14 12:06:00,72.8,59.9,30.09,ENE,67,2.0,7.0,64,0.00,,,0.00,Wunderground v.1.15,2013-06-14 17:06:00,
2013-06-14 12:08:00,73.4,60.5,30.09,ESE,117,2.0,8.0,64,0.00,,,0.00,Wunderground v.1.15,2013-06-14 17:08:00,
2013-06-14 12:11:00,73.4,59.6,30.09,SE,131,3.0,7.0,62,0.00,,,0.00,Wunderground v.1.15,2013-06-14 17:11:00,
2013-06-14 12:14:00,73.3,58.6,30.09,SE,126,3.0,7.0,60,0.00,,,0.00,Wunderground v.1.15,2013-06-14 17:14:00,
2013-06-14 12:16:00,73.2,58.5,30.09,ESE,115,3.0,7.0,60,0.00,,,0.00,Wunderground v.1.15,2013-06-14 17:16:00,
2013-06-14 12:22:00,73.3,58.1,30.09,ENE,65,2.0,7.0,59,0.00,,,0.00,Wunderground v.1.15,2013-06-14 17:22:00,
2013-06-14 12:24:00,73.2,58.0,30.09,East,101,2.0,7.0,59,0.00,,,0.00,Wunderground v.1.15,2013-06-14 17:24:00,
2013-06-14 12:26:00,73.1,57.9,30.09,ENE,74,3.0,7.0,59,0.00,,,0.00,Wunderground v.1.15,2013-06-14 17:26:00,
2013-06-14 12:28:00,73.1,57.4,30.09,ENE,71,3.0,7.0,58,0.00,,,0.00,Wunderground v.1.15,2013-06-14 17:28:00,
2013-06-14 12:29:00,73.1,57.9,30.09,NE,54,3.0,3.0,59,0.00,,,0.00,Wunderground v.1.15,2013-06-14 17:29:00,
2013-06-14 12:34:00,73.5,58.3,30.09,WSW,250,2.0,7.0,59,0.00,,,0.00,Wunderground v.1.15,2013-06-14 17:34:00,
2013-06-14 12:36:00,73.8,59.0,30.09,WNW,283,2.0,7.0,60,0.00,,,0.00,Wunderground v.1.15,2013-06-14 17:36:00,
2013-06-14 12:38:00,74.3,59.0,30.09,ESE,122,1.0,7.0,59,0.00,,,0.00,Wunderground v.1.15,2013-06-14 17:38:00,
2013-06-14 12:42:00,74.4,58.7,30.09,NNW,339,2.0,7.0,58,0.00,,,0.00,Wunderground v.1.15,2013-06-14 17:42:00,
2013-06-14 12:44:00,74.4,60.1,30.09,ESE,115,2.0,7.0,61,0.00,,,0.00,Wunderground v.1.15,2013-06-14 17:44:00,
2013-06-14 12:48:00,74.4,59.1,30.09,East,92,3.0,7.0,59,0.00,,,0.00,Wunderground v.1.15,2013-06-14 17:48:00,
2013-06-14 12:49:00,74.2,58.0,30.09,ENE,60,4.0,7.0,57,0.00,,,0.00,Wunderground v.1.15,2013-06-14 17:49:00,
2013-06-14 12:52:00,73.9,58.2,30.09,ENE,77,4.0,7.0,58,0.00,,,0.00,Wunderground v.1.15,2013-06-14 17:52:00,
2013-06-14 12:54:00,74.0,58.3,30.09,SE,128,3.0,7.0,58,0.00,,,0.00,Wunderground v.1.15,2013-06-14 17:54:00,
2013-06-14 12:58:00,74.5,60.2,30.09,ENE,64,3.0,7.0,61,0.00,,,0.00,Wunderground v.1.15,2013-06-14 17:58:00,
2013-06-14 13:00:00,74.5,58.8,30.09,NE,34,2.0,7.0,58,0.00,,,0.00,Wunderground v.1.15,2013-06-14 18:00:00,
2013-06-14 13:02:00,74.5,58.8,30.09,ENE,67,2.0,7.0,58,0.00,,,0.00,Wunderground v.1.15,2013-06-14 18:02:00,
2013-06-14 13:06:00,74.6,59.8,30.09,North,1,2.0,7.0,60,0.00,,,0.00,Wunderground v.1.15,2013-06-14 18:06:00,
2013-06-14 13:09:00,74.9,58.6,30.09,WNW,295,2.0,7.0,57,0.00,,,0.00,Wunderground v.1.15,2013-06-14 18:09:00,
2013-06-14 13:11:00,75.0,59.7,30.09,West,276,2.0,7.0,59,0.00,,,0.00,Wunderground v.1.15,2013-06-14 18:11:00,
2013-06-14 13:16:00,75.0,59.7,30.09,SW,229,1.0,7.0,59,0.00,,,0.00,Wunderground v.1.15,2013-06-14 18:16:00,
2013-06-14 13:18:00,75.5,61.1,30.09,SE,134,1.0,7.0,61,0.00,,,0.00,Wunderground v.1.15,2013-06-14 18:18:00,
2013-06-14 13:22:00,76.6,62.1,30.09,ESE,104,1.0,6.0,61,0.00,,,0.00,Wunderground v.1.15,2013-06-14 18:22:00,
2013-06-14 13:24:00,76.1,58.2,30.09,North,360,1.0,7.0,54,0.00,,,0.00,Wunderground v.1.15,2013-06-14 18:24:00,
2013-06-14 13:26:00,75.8,60.4,30.09,WSW,245,2.0,7.0,59,0.00,,,0.00,Wunderground v.1.15,2013-06-14 18:26:00,
2013-06-14 13:28:00,76.1,59.3,30.09,SW,225,2.0,7.0,56,0.00,,,0.00,Wunderground v.1.15,2013-06-14 18:28:00,
2013-06-14 13:31:00,76.2,58.3,30.09,SSW,204,2.0,7.0,54,0.00,,,0.00,Wunderground v.1.15,2013-06-14 18:31:00,
2013-06-14 13:34:00,76.2,59.4,30.08,WSW,255,2.0,7.0,56,0.00,,,0.00,Wunderground v.1.15,2013-06-14 18:34:00,
2013-06-14 13:36:00,76.1,58.2,30.08,West,273,2.0,7.0,54,0.00,,,0.00,Wunderground v.1.15,2013-06-14 18:36:00,
2013-06-14 13:40:00,76.3,60.4,30.08,NE,37,2.0,7.0,58,0.00,,,0.00,Wunderground v.1.15,2013-06-14 18:40:00,
2013-06-14 13:41:00,76.7,61.8,30.08,SSW,196,2.0,7.0,60,0.00,,,0.00,Wunderground v.1.15,2013-06-14 18:41:00,
2013-06-14 13:44:00,77.4,60.0,30.08,SSE,158,2.0,7.0,55,0.00,,,0.00,Wunderground v.1.15,2013-06-14 18:44:00,
2013-06-14 13:46:00,77.7,60.8,30.08,SSE,149,2.0,7.0,56,0.00,,,0.00,Wunderground v.1.15,2013-06-14 18:46:00,
2013-06-14 13:48:00,77.9,60.4,30.08,SE,131,2.0,7.0,55,0.00,,,0.00,Wunderground v.1.15,2013-06-14 18:48:00,
2013-06-14 13:52:00,77.3,61.9,30.08,ESE,122,2.0,3.0,59,0.00,,,0.00,Wunderground v.1.15,2013-06-14 18:52:00,
2013-06-14 13:53:00,77.0,59.1,30.08,ESE,110,3.0,4.0,54,0.00,,,0.00,Wunderground v.1.15,2013-06-14 18:53:00,
2013-06-14 14:00:00,75.8,58.5,30.07,SE,135,3.0,7.0,55,0.00,,,0.00,Wunderground v.1.15,2013-06-14 19:00:00,
2013-06-14 14:02:00,75.8,59.0,30.07,ENE,74,3.0,7.0,56,0.00,,,0.00,Wunderground v.1.15,2013-06-14 19:02:00,
2013-06-14 14:08:00,76.6,58.7,30.07,WSW,252,3.0,7.0,54,0.00,,,0.00,Wunderground v.1.15,2013-06-14 19:08:00,
2013-06-14 14:09:00,76.4,58.5,30.07,WNW,283,3.0,7.0,54,0.00,,,0.00,Wunderground v.1.15,2013-06-14 19:09:00,
2013-06-14 14:12:00,76.2,60.3,30.07,NW,308,3.0,7.0,58,0.00,,,0.00,Wunderground v.1.15,2013-06-14 19:12:00,
2013-06-14 14:16:00,76.2,59.9,30.06,ENE,77,3.0,7.0,57,0.00,,,0.00,Wunderground v.1.15,2013-06-14 19:16:00,
2013-06-14 14:18:00,76.2,59.4,30.06,South,185,3.0,7.0,56,0.00,,,0.00,Wunderground v.1.15,2013-06-14 19:18:00,
2013-06-14 14:23:00,76.7,60.3,30.06,ESE,111,4.0,7.0,57,0.00,,,0.00,Wunderground v.1.15,2013-06-14 19:23:00,
2013-06-14 14:28:00,76.8,59.9,30.05,East,82,4.0,7.0,56,0.00,,,0.00,Wunderground v.1.15,2013-06-14 19:28:00,
2013-06-14 14:29:00,77.0,61.1,30.05,SE,128,4.0,7.0,58,0.00,,,0.00,Wunderground v.1.15,2013-06-14 19:29:00,
2013-06-14 14:34:00,76.2,59.4,30.05,East,83,4.0,7.0,56,0.00,,,0.00,Wunderground v.1.15,2013-06-14 19:34:00,
2013-06-14 14:36:00,76.1,59.8,30.05,NE,46,4.0,7.0,57,0.00,,,0.00,Wunderground v.1.15,2013-06-14 19:36:00,
2013-06-14 14:38:00,76.0,59.2,30.05,NNE,15,4.0,7.0,56,0.00,,,0.00,Wunderground v.1.15,2013-06-14 19:38:00,
2013-06-14 14:40:00,76.3,60.4,30.05,SW,221,4.0,4.0,58,0.00,,,0.00,Wunderground v.1.15,2013-06-14 19:40:00,
2013-06-14 14:42:00,76.7,59.3,30.05,WSW,245,3.0,7.0,55,0.00,,,0.00,Wunderground v.1.15,2013-06-14 19:42:00,
2013-06-14 14:48:00,77.7,61.7,30.04,East,96,3.0,8.0,58,0.00,,,0.00,Wunderground v.1.15,2013-06-14 19:48:00,
2013-06-14 14:50:00,77.5,61.1,30.04,SE,128,3.0,3.0,57,0.00,,,0.00,Wunderground v.1.15,2013-06-14 19:50:00,
2013-06-14 14:51:00,77.7,60.2,30.04,SW,214,3.0,7.0,55,0.00,,,0.00,Wunderground v.1.15,2013-06-14 19:51:00,
2013-06-14 14:56:00,78.1,60.1,30.04,SE,142,3.0,7.0,54,0.00,,,0.00,Wunderground v.1.15,2013-06-14 19:56:00,
2013-06-14 14:58:00,78.5,59.9,30.04,SSW,204,4.0,7.0,53,0.00,,,0.00,Wunderground v.1.15,2013-06-14 19:58:00,
2013-06-14 15:02:00,77.8,59.8,30.04,SE,127,4.0,8.0,54,0.00,,,0.00,Wunderground v.1.15,2013-06-14 20:02:00,
2013-06-14 15:03:00,77.4,58.4,30.04,NNE,25,5.0,8.0,52,0.00,,,0.00,Wunderground v.1.15,2013-06-14 20:03:00,
2013-06-14 15:08:00,77.0,58.6,30.03,NNE,13,4.0,8.0,53,0.00,,,0.00,Wunderground v.1.15,2013-06-14 20:08:00,
2013-06-14 15:14:00,77.8,60.3,30.03,East,91,1.0,7.0,55,0.00,,,0.00,Wunderground v.1.15,2013-06-14 20:14:00,
2013-06-14 15:16:00,77.9,60.9,30.03,ESE,114,2.0,7.0,56,0.00,,,0.00,Wunderground v.1.15,2013-06-14 20:16:00,
2013-06-14 15:20:00,77.6,59.1,30.03,ESE,104,3.0,7.0,53,0.00,,,0.00,Wunderground v.1.15,2013-06-14 20:20:00,
2013-06-14 15:22:00,77.5,59.0,30.03,ENE,67,4.0,7.0,53,0.00,,,0.00,Wunderground v.1.15,2013-06-14 20:22:00,
2013-06-14 15:24:00,77.3,59.9,30.03,East,92,5.0,7.0,55,0.00,,,0.00,Wunderground v.1.15,2013-06-14 20:24:00,
2013-06-14 15:28:00,77.3,58.8,30.03,SE,126,4.0,7.0,53,0.00,,,0.00,Wunderground v.1.15,2013-06-14 20:28:00,
2013-06-14 15:29:00,77.4,58.9,30.03,SE,127,4.0,7.0,53,0.00,,,0.00,Wunderground v.1.15,2013-06-14 20:29:00,
2013-06-14 15:31:00,77.5,59.5,30.03,East,101,4.0,7.0,54,0.00,,,0.00,Wunderground v.1.15,2013-06-14 20:31:00,
2013-06-14 15:34:00,77.5,60.1,30.03,SE,132,5.0,7.0,55,0.00,,,0.00,Wunderground v.1.15,2013-06-14 20:34:00,
2013-06-14 15:38:00,77.7,59.7,30.02,ESE,110,5.0,7.0,54,0.00,,,0.00,Wunderground v.1.15,2013-06-14 20:38:00,
2013-06-14 15:42:00,77.9,59.9,30.02,SE,125,5.0,9.0,54,0.00,,,0.00,Wunderground v.1.15,2013-06-14 20:42:00,
2013-06-14 15:44:00,77.8,59.8,30.02,SE,128,6.0,9.0,54,0.00,,,0.00,Wunderground v.1.15,2013-06-14 20:44:00,
2013-06-14 15:48:00,77.6,58.6,30.02,ESE,121,6.0,9.0,52,0.00,,,0.00,Wunderground v.1.15,2013-06-14 20:48:00,
2013-06-14 15:49:00,77.6,58.6,30.02,East,94,7.0,7.0,52,0.00,,,0.00,Wunderground v.1.15,2013-06-14 20:49:00,
2013-06-14 15:51:00,77.5,58.5,30.02,ESE,105,6.0,7.0,52,0.00,,,0.00,Wunderground v.1.15,2013-06-14 20:51:00,
2013-06-14 15:56:00,77.4,58.9,30.02,East,82,6.0,7.0,53,0.00,,,0.00,Wunderground v.1.15,2013-06-14 20:56:00,
2013-06-14 15:58:00,77.3,58.8,30.02,East,85,6.0,7.0,53,0.00,,,0.00,Wunderground v.1.15,2013-06-14 20:58:00,
2013-06-14 16:00:00,77.2,58.7,30.01,East,92,5.0,5.0,53,0.00,,,0.00,Wunderground v.1.15,2013-06-14 21:00:00,
2013-06-14 16:02:00,77.3,60.4,30.01,ESE,117,5.0,7.0,56,0.00,,,0.00,Wunderground v.1.15,2013-06-14 21:02:00,
2013-06-14 16:06:00,78.3,60.3,30.00,ESE,118,5.0,11.0,54,0.00,,,0.00,Wunderground v.1.15,2013-06-14 21:06:00,
2013-06-14 16:08:00,78.3,59.2,30.01,SE,124,6.0,11.0,52,0.00,,,0.00,Wunderground v.1.15,2013-06-14 21:08:00,
2013-06-14 16:10:00,78.3,58.7,30.01,SE,135,6.0,6.0,51,0.00,,,0.00,Wunderground v.1.15,2013-06-14 21:10:00,
2013-06-14 16:11:00,78.5,58.9,30.00,ESE,120,6.0,10.0,51,0.00,,,0.00,Wunderground v.1.15,2013-06-14 21:11:00,
2013-06-14 16:16:00,78.2,58.0,30.00,SE,131,6.0,10.0,50,0.00,,,0.00,Wunderground v.1.15,2013-06-14 21:16:00,
2013-06-14 16:18:00,78.2,60.2,30.00,SE,125,6.0,10.0,54,0.00,,,0.00,Wunderground v.1.15,2013-06-14 21:18:00,
2013-06-14 16:20:00,78.3,59.2,30.00,ESE,114,6.0,7.0,52,0.00,,,0.00,Wunderground v.1.15,2013-06-14 21:20:00,
2013-06-14 16:26:00,78.1,60.1,30.00,SE,124,5.0,7.0,54,0.00,,,0.00,Wunderground v.1.15,2013-06-14 21:26:00,
2013-06-14 16:28:00,78.3,57.6,30.00,SE,127,4.0,7.0,49,0.00,,,0.00,Wunderground v.1.15,2013-06-14 21:28:00,
2013-06-14 16:30:00,78.2,57.5,30.00,ESE,113,4.0,4.0,49,0.00,,,0.00,Wunderground v.1.15,2013-06-14 21:30:00,
2013-06-14 16:32:00,78.3,58.1,29.99,SE,131,3.0,6.0,50,0.00,,,0.00,Wunderground v.1.15,2013-06-14 21:32:00,
2013-06-14 16:34:00,78.4,58.8,29.99,East,95,4.0,7.0,51,0.00,,,0.00,Wunderground v.1.15,2013-06-14 21:34:00,
2013-06-14 16:38:00,78.1,57.9,30.00,ENE,77,5.0,7.0,50,0.00,,,0.00,Wunderground v.1.15,2013-06-14 21:38:00,
2013-06-14 16:39:00,78.0,58.9,30.00,SE,146,5.0,7.0,52,0.00,,,0.00,Wunderground v.1.15,2013-06-14 21:39:00,
2013-06-14 16:45:00,78.1,59.0,29.99,ESE,110,6.0,7.0,52,0.00,,,0.00,Wunderground v.1.15,2013-06-14 21:45:00,
2013-06-14 16:48:00,78.3,58.7,29.99,East,82,5.0,7.0,51,0.00,,,0.00,Wunderground v.1.15,2013-06-14 21:48:00,
2013-06-14 16:52:00,78.0,60.0,29.99,ESE,111,5.0,9.0,54,0.00,,,0.00,Wunderground v.1.15,2013-06-14 21:52:00,
2013-06-14 16:56:00,78.1,59.0,29.99,SE,134,7.0,12.0,52,0.00,,,0.00,Wunderground v.1.15,2013-06-14 21:56:00,
2013-06-14 16:58:00,78.1,59.6,29.99,East,101,8.0,12.0,53,0.00,,,0.00,Wunderground v.1.15,2013-06-14 21:58:00,
2013-06-14 17:02:00,78.1,58.5,29.99,East,95,9.0,9.0,51,0.00,,,0.00,Wunderground v.1.15,2013-06-14 22:02:00,
2013-06-14 17:08:00,77.8,57.7,29.99,East,80,7.0,9.0,50,0.00,,,0.00,Wunderground v.1.15,2013-06-14 22:08:00,
2013-06-14 17:10:00,77.9,59.9,29.98,ESE,113,6.0,12.0,54,0.00,,,0.00,Wunderground v.1.15,2013-06-14 22:10:00,
2013-06-14 17:12:00,78.0,57.3,29.98,SE,128,7.0,12.0,49,0.00,,,0.00,Wunderground v.1.15,2013-06-14 22:12:00,
2013-06-14 17:15:00,78.0,57.9,29.97,ESE,105,7.0,13.0,50,0.00,,,0.00,Wunderground v.1.15,2013-06-14 22:15:00,
2013-06-14 17:18:00,77.9,58.9,29.97,ESE,115,8.0,13.0,52,0.00,,,0.00,Wunderground v.1.15,2013-06-14 22:18:00,
2013-06-14 17:21:00,78.1,59.0,29.97,ESE,115,7.0,8.0,52,0.00,,,0.00,Wunderground v.1.15,2013-06-14 22:21:00,
2013-06-14 17:24:00,78.0,58.4,29.98,SE,127,7.0,8.0,51,0.00,,,0.00,Wunderground v.1.15,2013-06-14 22:24:00,
2013-06-14 17:26:00,77.9,58.3,29.98,ESE,105,7.0,12.0,51,0.00,,,0.00,Wunderground v.1.15,2013-06-14 22:26:00,
2013-06-14 17:28:00,77.9,58.3,29.97,SE,127,7.0,12.0,51,0.00,,,0.00,Wunderground v.1.15,2013-06-14 22:28:00,
2013-06-14 17:30:00,77.7,58.1,29.97,ESE,117,8.0,8.0,51,0.00,,,0.00,Wunderground v.1.15,2013-06-14 22:30:00,
2013-06-14 17:32:00,77.7,58.7,29.98,ESE,119,9.0,10.0,52,0.00,,,0.00,Wunderground v.1.15,2013-06-14 22:32:00,
2013-06-14 17:36:00,77.9,59.4,29.98,East,101,8.0,10.0,53,0.00,,,0.00,Wunderground v.1.15,2013-06-14 22:36:00,
2013-06-14 17:39:00,77.8,58.2,29.98,SE,128,7.0,7.0,51,0.00,,,0.00,Wunderground v.1.15,2013-06-14 22:39:00,
2013-06-14 17:41:00,77.8,59.3,29.98,ESE,115,7.0,8.0,53,0.00,,,0.00,Wunderground v.1.15,2013-06-14 22:41:00,
2013-06-14 17:44:00,77.7,58.1,29.98,ESE,108,7.0,8.0,51,0.00,,,0.00,Wunderground v.1.15,2013-06-14 22:44:00,
2013-06-14 17:46:00,77.7,57.6,29.97,East,86,6.0,8.0,50,0.00,,,0.00,Wunderground v.1.15,2013-06-14 22:46:00,
2013-06-14 17:50:00,77.7,58.7,29.97,East,86,6.0,8.0,52,0.00,,,0.00,Wunderground v.1.15,2013-06-14 22:50:00,
2013-06-14 17:52:00,77.7,58.7,29.97,SE,126,6.0,8.0,52,0.00,,,0.00,Wunderground v.1.15,2013-06-14 22:52:00,
2013-06-14 17:55:00,77.7,59.2,29.97,ESE,108,7.0,9.0,53,0.00,,,0.00,Wunderground v.1.15,2013-06-14 22:55:00,
2013-06-14 18:00:00,77.7,58.7,29.96,ESE,110,7.0,10.0,52,0.00,,,0.00,Wunderground v.1.15,2013-06-14 23:00:00,
2013-06-14 18:01:00,77.7,58.7,29.96,ENE,77,8.0,12.0,52,0.00,,,0.00,Wunderground v.1.15,2013-06-14 23:01:00,
2013-06-14 18:04:00,77.5,58.5,29.96,ESE,109,9.0,12.0,52,0.00,,,0.00,Wunderground v.1.15,2013-06-14 23:04:00,
2013-06-14 18:08:00,77.3,58.3,29.96,ESE,106,9.0,12.0,52,0.00,,,0.00,Wunderground v.1.15,2013-06-14 23:08:00,
2013-06-14 18:10:00,77.2,58.7,29.97,East,90,9.0,9.0,53,0.00,,,0.00,Wunderground v.1.15,2013-06-14 23:10:00,
2013-06-14 18:12:00,77.2,58.2,29.97,ESE,113,9.0,9.0,52,0.00,,,0.00,Wunderground v.1.15,2013-06-14 23:12:00,
2013-06-14 18:13:00,77.2,58.7,29.97,ESE,108,8.0,9.0,53,0.00,,,0.00,Wunderground v.1.15,2013-06-14 23:13:00,
2013-06-14 18:15:00,77.1,58.1,29.97,ESE,110,7.0,9.0,52,0.00,,,0.00,Wunderground v.1.15,2013-06-14 23:15:00,
2013-06-14 18:18:00,77.2,58.7,29.97,ESE,120,7.0,9.0,53,0.00,,,0.00,Wunderground v.1.15,2013-06-14 23:18:00,
2013-06-14 18:20:00,77.2,58.7,29.97,ESE,108,7.0,8.0,53,0.00,,,0.00,Wunderground v.1.15,2013-06-14 23:20:00,
2013-06-14 18:22:00,77.2,59.3,29.97,ENE,77,7.0,8.0,54,0.00,,,0.00,Wunderground v.1.15,2013-06-14 23:22:00,
2013-06-14 18:24:00,77.1,59.2,29.96,ESE,122,7.0,8.0,54,0.00,,,0.00,Wunderground v.1.15,2013-06-14 23:24:00,
2013-06-14 18:26:00,77.0,60.1,29.96,ESE,106,7.0,9.0,56,0.00,,,0.00,Wunderground v.1.15,2013-06-14 23:26:00,
2013-06-14 18:28:00,76.9,59.0,29.97,East,92,7.0,9.0,54,0.00,,,0.00,Wunderground v.1.15,2013-06-14 23:28:00,
2013-06-14 18:32:00,76.9,59.0,29.96,SE,128,8.0,8.0,54,0.00,,,0.00,Wunderground v.1.15,2013-06-14 23:32:00,
2013-06-14 18:33:00,76.8,58.9,29.96,ESE,108,8.0,8.0,54,0.00,,,0.00,Wunderground v.1.15,2013-06-14 23:33:00,
2013-06-14 18:38:00,76.6,59.7,29.96,ESE,117,9.0,9.0,56,0.00,,,0.00,Wunderground v.1.15,2013-06-14 23:38:00,
2013-06-14 18:42:00,76.5,59.6,29.97,ESE,122,8.0,9.0,56,0.00,,,0.00,Wunderground v.1.15,2013-06-14 23:42:00,
2013-06-14 18:44:00,76.4,59.5,29.97,ESE,122,8.0,10.0,56,0.00,,,0.00,Wunderground v.1.15,2013-06-14 23:44:00,
2013-06-14 18:46:00,76.4,59.0,29.97,ESE,122,8.0,10.0,55,0.00,,,0.00,Wunderground v.1.15,2013-06-14 23:46:00,
2013-06-14 18:52:00,76.3,59.4,29.97,ESE,113,7.0,7.0,56,0.00,,,0.00,Wunderground v.1.15,2013-06-14 23:52:00,
2013-06-14 18:53:00,76.2,59.4,29.97,SE,124,6.0,7.0,56,0.00,,,0.00,Wunderground v.1.15,2013-06-14 23:53:00,
2013-06-14 18:58:00,76.2,58.9,29.97,ESE,115,6.0,7.0,55,0.00,,,0.00,Wunderground v.1.15,2013-06-14 23:58:00,
2013-06-14 19:00:00,76.2,59.4,29.97,ESE,115,6.0,6.0,56,0.00,,,0.00,Wunderground v.1.15,2013-06-15 00:00:00,
2013-06-14 19:02:00,76.2,59.4,29.97,ESE,113,6.0,7.0,56,0.00,,,0.00,Wunderground v.1.15,2013-06-15 00:02:00,
2013-06-14 19:04:00,76.2,59.4,29.97,SE,125,6.0,7.0,56,0.00,,,0.00,Wunderground v.1.15,2013-06-15 00:04:00,
2013-06-14 19:06:00,76.1,59.3,29.98,SSE,155,5.0,7.0,56,0.00,,,0.00,Wunderground v.1.15,2013-06-15 00:06:00,
2013-06-14 19:08:00,76.1,59.3,29.98,SE,137,4.0,7.0,56,0.00,,,0.00,Wunderground v.1.15,2013-06-15 00:08:00,
2013-06-14 19:10:00,76.1,58.8,29.98,SE,124,4.0,7.0,55,0.00,,,0.00,Wunderground v.1.15,2013-06-15 00:10:00,
2013-06-14 19:14:00,76.1,59.3,29.98,ESE,118,4.0,7.0,56,0.00,,,0.00,Wunderground v.1.15,2013-06-15 00:14:00,
2013-06-14 19:16:00,76.1,59.3,29.98,ESE,122,4.0,7.0,56,0.00,,,0.00,Wunderground v.1.15,2013-06-15 00:16:00,
2013-06-14 19:20:00,75.9,59.1,29.98,SE,124,4.0,7.0,56,0.00,,,0.00,Wunderground v.1.15,2013-06-15 00:20:00,
2013-06-14 19:22:00,75.9,59.6,29.98,ESE,119,4.0,7.0,57,0.00,,,0.00,Wunderground v.1.15,2013-06-15 00:22:00,
2013-06-14 19:23:00,75.8,59.5,29.98,ESE,122,4.0,7.0,57,0.00,,,0.00,Wunderground v.1.15,2013-06-15 00:23:00,
2013-06-14 19:26:00,75.8,59.5,29.98,SE,131,4.0,7.0,57,0.00,,,0.00,Wunderground v.1.15,2013-06-15 00:26:00,
2013-06-14 19:31:00,75.7,60.4,29.98,ESE,108,4.0,7.0,59,0.00,,,0.00,Wunderground v.1.15,2013-06-15 00:31:00,
2013-06-14 19:34:00,75.6,60.3,29.97,ESE,120,4.0,7.0,59,0.00,,,0.00,Wunderground v.1.15,2013-06-15 00:34:00,
2013-06-14 19:38:00,75.5,60.2,29.98,SE,131,4.0,7.0,59,0.00,,,0.00,Wunderground v.1.15,2013-06-15 00:38:00,
2013-06-14 19:40:00,75.4,59.6,29.98,SE,124,4.0,4.0,58,0.00,,,0.00,Wunderground v.1.15,2013-06-15 00:40:00,
2013-06-14 19:42:00,75.4,59.6,29.98,SE,128,4.0,7.0,58,0.00,,,0.00,Wunderground v.1.15,2013-06-15 00:42:00,
2013-06-14 19:44:00,75.3,60.5,29.98,ESE,117,4.0,7.0,60,0.00,,,0.00,Wunderground v.1.15,2013-06-15 00:44:00,
2013-06-14 19:48:00,75.1,60.7,29.98,ESE,105,2.0,7.0,61,0.00,,,0.00,Wunderground v.1.15,2013-06-15 00:48:00,
2013-06-14 19:49:00,75.0,61.1,29.98,ESE,105,2.0,2.0,62,0.00,,,0.00,Wunderground v.1.15,2013-06-15 00:49:00,
2013-06-14 19:51:00,74.9,60.5,29.98,ESE,105,2.0,7.0,61,0.00,,,0.00,Wunderground v.1.15,2013-06-15 00:51:00,
2013-06-14 19:58:00,74.7,61.3,29.98,ESE,119,2.0,7.0,63,0.00,,,0.00,Wunderground v.1.15,2013-06-15 00:58:00,
2013-06-14 20:00:00,74.6,61.2,29.98,ESE,113,2.0,7.0,63,0.00,,,0.00,Wunderground v.1.15,2013-06-15 01:00:00,
2013-06-14 20:04:00,74.5,61.5,29.98,East,101,2.0,7.0,64,0.00,,,0.00,Wunderground v.1.15,2013-06-15 01:04:00,
2013-06-14 20:08:00,74.3,61.3,29.98,East,96,2.0,7.0,64,0.00,,,0.00,Wunderground v.1.15,2013-06-15 01:08:00,
2013-06-14 20:09:00,74.2,61.7,29.98,East,96,2.0,2.0,65,0.00,,,0.00,Wunderground v.1.15,2013-06-15 01:09:00,
2013-06-14 20:14:00,74.0,61.9,29.99,East,89,1.0,7.0,66,0.00,,,0.00,Wunderground v.1.15,2013-06-15 01:14:00,
2013-06-14 20:16:00,73.9,61.4,29.99,East,89,1.0,7.0,65,0.00,,,0.00,Wunderground v.1.15,2013-06-15 01:16:00,
2013-06-14 20:18:00,73.9,61.8,29.99,East,89,1.0,7.0,66,0.00,,,0.00,Wunderground v.1.15,2013-06-15 01:18:00,
2013-06-14 20:22:00,73.7,62.5,29.99,East,94,1.0,7.0,68,0.00,,,0.00,Wunderground v.1.15,2013-06-15 01:22:00,
2013-06-14 20:24:00,73.6,62.4,29.99,ESE,105,1.0,7.0,68,0.00,,,0.00,Wunderground v.1.15,2013-06-15 01:24:00,
2013-06-14 20:28:00,73.4,61.8,29.98,ESE,110,2.0,7.0,67,0.00,,,0.00,Wunderground v.1.15,2013-06-15 01:28:00,
2013-06-14 20:30:00,73.3,62.1,29.98,ESE,115,2.0,7.0,68,0.00,,,0.00,Wunderground v.1.15,2013-06-15 01:30:00,
2013-06-14 20:34:00,73.0,62.6,29.98,ESE,115,3.0,7.0,70,0.00,,,0.00,Wunderground v.1.15,2013-06-15 01:34:00,
2013-06-14 20:36:00,72.9,62.5,29.98,ESE,110,3.0,7.0,70,0.00,,,0.00,Wunderground v.1.15,2013-06-15 01:36:00,
2013-06-14 20:38:00,72.7,62.8,29.98,ESE,108,3.0,7.0,71,0.00,,,0.00,Wunderground v.1.15,2013-06-15 01:38:00,
2013-06-14 20:40:00,72.6,62.7,29.98,ESE,105,3.0,7.0,71,0.00,,,0.00,Wunderground v.1.15,2013-06-15 01:40:00,
2013-06-14 20:44:00,72.3,62.4,29.98,ESE,113,3.0,7.0,71,0.00,,,0.00,Wunderground v.1.15,2013-06-15 01:44:00,
2013-06-14 20:48:00,72.1,61.8,29.98,ESE,112,3.0,7.0,70,0.00,,,0.00,Wunderground v.1.15,2013-06-15 01:48:00,
2013-06-14 20:52:00,72.1,61.4,29.98,ESE,108,3.0,7.0,69,0.00,,,0.00,Wunderground v.1.15,2013-06-15 01:52:00,
2013-06-14 20:54:00,72.1,61.4,29.98,East,96,3.0,7.0,69,0.00,,,0.00,Wunderground v.1.15,2013-06-15 01:54:00,
2013-06-14 20:56:00,72.0,61.3,29.98,ESE,102,3.0,7.0,69,0.00,,,0.00,Wunderground v.1.15,2013-06-15 01:56:00,
2013-06-14 20:58:00,71.9,61.6,29.98,East,98,3.0,7.0,70,0.00,,,0.00,Wunderground v.1.15,2013-06-15 01:58:00,
2013-06-14 21:00:00,71.8,61.5,29.98,East,97,3.0,7.0,70,0.00,,,0.00,Wunderground v.1.15,2013-06-15 02:00:00,
2013-06-14 21:01:00,71.7,61.8,29.98,East,83,3.0,7.0,71,0.00,,,0.00,Wunderground v.1.15,2013-06-15 02:01:00,
2013-06-14 21:06:00,71.5,62.0,29.98,East,81,3.0,7.0,72,0.00,,,0.00,Wunderground v.1.15,2013-06-15 02:06:00,
2013-06-14 21:08:00,71.4,61.9,29.99,East,87,3.0,7.0,72,0.00,,,0.00,Wunderground v.1.15,2013-06-15 02:08:00,
2013-06-14 21:12:00,71.4,61.9,29.99,East,91,3.0,7.0,72,0.00,,,0.00,Wunderground v.1.15,2013-06-15 02:12:00,
2013-06-14 21:13:00,71.3,62.2,29.99,ESE,102,3.0,7.0,73,0.00,,,0.00,Wunderground v.1.15,2013-06-15 02:13:00,
2013-06-14 21:19:00,70.9,62.2,29.99,ESE,107,3.0,7.0,74,0.00,,,0.00,Wunderground v.1.15,2013-06-15 02:19:00,
2013-06-14 21:21:00,70.8,62.5,29.99,ESE,113,3.0,7.0,75,0.00,,,0.00,Wunderground v.1.15,2013-06-15 02:21:00,
2013-06-14 21:24:00,70.6,61.9,29.99,ESE,120,3.0,7.0,74,0.00,,,0.00,Wunderground v.1.15,2013-06-15 02:24:00,
2013-06-14 21:26:00,70.5,61.8,29.99,ESE,115,3.0,7.0,74,0.00,,,0.00,Wunderground v.1.15,2013-06-15 02:26:00,
2013-06-14 21:30:00,70.5,61.8,29.99,ESE,119,4.0,7.0,74,0.00,,,0.00,Wunderground v.1.15,2013-06-15 02:30:00,
2013-06-14 21:32:00,70.6,61.5,29.99,ESE,113,4.0,7.0,73,0.00,,,0.00,Wunderground v.1.15,2013-06-15 02:32:00,
2013-06-14 21:33:00,70.6,61.5,29.99,ESE,117,4.0,7.0,73,0.00,,,0.00,Wunderground v.1.15,2013-06-15 02:33:00,
2013-06-14 21:38:00,70.6,61.1,29.99,ESE,111,4.0,7.0,72,0.00,,,0.00,Wunderground v.1.15,2013-06-15 02:38:00,
2013-06-14 21:40:00,70.7,61.2,29.99,ESE,112,4.0,7.0,72,0.00,,,0.00,Wunderground v.1.15,2013-06-15 02:40:00,
2013-06-14 21:41:00,70.7,61.2,29.99,East,99,5.0,7.0,72,0.00,,,0.00,Wunderground v.1.15,2013-06-15 02:41:00,
2013-06-14 21:46:00,70.7,61.2,29.98,ESE,112,5.0,7.0,72,0.00,,,0.00,Wunderground v.1.15,2013-06-15 02:46:00,
2013-06-14 21:48:00,70.7,60.8,29.98,ESE,112,5.0,7.0,71,0.00,,,0.00,Wunderground v.1.15,2013-06-15 02:48:00,
2013-06-14 21:50:00,70.9,61.0,29.98,ESE,120,6.0,7.0,71,0.00,,,0.00,Wunderground v.1.15,2013-06-15 02:50:00,
2013-06-14 21:52:00,71.0,60.3,29.98,ESE,116,6.0,7.0,69,0.00,,,0.00,Wunderground v.1.15,2013-06-15 02:52:00,
2013-06-14 21:55:00,71.2,60.5,29.97,ESE,120,7.0,7.0,69,0.00,,,0.00,Wunderground v.1.15,2013-06-15 02:55:00,
2013-06-14 22:00:00,71.3,60.2,29.97,ESE,121,7.0,10.0,68,0.00,,,0.00,Wunderground v.1.15,2013-06-15 03:00:00,
2013-06-14 22:02:00,71.3,60.6,29.96,ESE,122,8.0,10.0,69,0.00,,,0.00,Wunderground v.1.15,2013-06-15 03:02:00,
2013-06-14 22:04:00,71.3,60.2,29.96,ESE,111,8.0,10.0,68,0.00,,,0.00,Wunderground v.1.15,2013-06-15 03:04:00,
2013-06-14 22:06:00,71.2,60.5,29.96,ESE,118,8.0,10.0,69,0.00,,,0.00,Wunderground v.1.15,2013-06-15 03:06:00,
2013-06-14 22:08:00,71.2,60.1,29.96,ESE,122,8.0,10.0,68,0.00,,,0.00,Wunderground v.1.15,2013-06-15 03:08:00,
2013-06-14 22:12:00,71.3,60.2,29.96,ESE,113,8.0,9.0,68,0.00,,,0.00,Wunderground v.1.15,2013-06-15 03:12:00,
2013-06-14 22:18:00,71.3,59.8,29.96,ESE,108,9.0,12.0,67,0.00,,,0.00,Wunderground v.1.15,2013-06-15 03:18:00,
2013-06-14 22:20:00,71.3,59.4,29.96,ESE,122,9.0,10.0,66,0.00,,,0.00,Wunderground v.1.15,2013-06-15 03:20:00,
2013-06-14 22:22:00,71.4,59.4,29.96,ESE,122,9.0,10.0,66,0.00,,,0.00,Wunderground v.1.15,2013-06-15 03:22:00,
2013-06-14 22:26:00,71.5,59.5,29.96,ESE,102,9.0,10.0,66,0.00,,,0.00,Wunderground v.1.15,2013-06-15 03:26:00,
2013-06-14 22:28:00,71.5,59.1,29.96,ESE,113,9.0,11.0,65,0.00,,,0.00,Wunderground v.1.15,2013-06-15 03:28:00,
2013-06-14 22:29:00,71.6,59.2,29.96,SE,124,9.0,9.0,65,0.00,,,0.00,Wunderground v.1.15,2013-06-15 03:29:00,
2013-06-14 22:34:00,71.5,59.1,29.96,ESE,121,9.0,9.0,65,0.00,,,0.00,Wunderground v.1.15,2013-06-15 03:34:00,
2013-06-14 22:36:00,71.4,59.4,29.96,ESE,115,10.0,10.0,66,0.00,,,0.00,Wunderground v.1.15,2013-06-15 03:36:00,
2013-06-14 22:40:00,71.1,59.6,29.96,ESE,108,9.0,9.0,67,0.00,,,0.00,Wunderground v.1.15,2013-06-15 03:40:00,
2013-06-14 22:43:00,71.0,59.5,29.95,ESE,103,9.0,10.0,67,0.00,,,0.00,Wunderground v.1.15,2013-06-15 03:43:00,
2013-06-14 22:45:00,71.0,59.5,29.95,ESE,116,9.0,10.0,67,0.00,,,0.00,Wunderground v.1.15,2013-06-15 03:45:00,
2013-06-14 22:51:00,70.7,59.6,29.96,SE,131,8.0,8.0,68,0.00,,,0.00,Wunderground v.1.15,2013-06-15 03:51:00,
2013-06-14 22:54:00,70.7,59.6,29.96,ESE,115,7.0,8.0,68,0.00,,,0.00,Wunderground v.1.15,2013-06-15 03:54:00,
2013-06-14 22:56:00,70.6,59.9,29.96,SE,124,7.0,8.0,69,0.00,,,0.00,Wunderground v.1.15,2013-06-15 03:56:00,
2013-06-14 23:00:00,70.6,59.9,29.96,ESE,108,7.0,7.0,69,0.00,,,0.00,Wunderground v.1.15,2013-06-15 04:00:00,
2013-06-14 23:02:00,70.5,59.8,29.96,ESE,110,6.0,7.0,69,0.00,,,0.00,Wunderground v.1.15,2013-06-15 04:02:00,
2013-06-14 23:03:00,70.3,60.1,29.96,ESE,110,6.0,7.0,70,0.00,,,0.00,Wunderground v.1.15,2013-06-15 04:03:00,
2013-06-14 23:09:00,70.2,60.0,29.96,ESE,105,7.0,7.0,70,0.00,,,0.00,Wunderground v.1.15,2013-06-15 04:09:00,
2013-06-14 23:11:00,70.0,60.2,29.96,SE,124,7.0,8.0,71,0.00,,,0.00,Wunderground v.1.15,2013-06-15 04:11:00,
2013-06-14 23:14:00,69.9,60.1,29.96,ESE,116,8.0,8.0,71,0.00,,,0.00,Wunderground v.1.15,2013-06-15 04:14:00,
2013-06-14 23:16:00,69.8,60.0,29.96,ESE,105,7.0,9.0,71,0.00,,,0.00,Wunderground v.1.15,2013-06-15 04:16:00,
2013-06-14 23:19:00,69.4,60.4,29.96,East,79,7.0,7.0,73,0.00,,,0.00,Wunderground v.1.15,2013-06-15 04:19:00,
2013-06-14 23:21:00,69.0,60.4,29.96,ESE,105,7.0,7.0,74,0.00,,,0.00,Wunderground v.1.15,2013-06-15 04:21:00,
2013-06-14 23:26:00,68.3,60.8,29.96,ENE,77,7.0,9.0,77,0.00,,,0.00,Wunderground v.1.15,2013-06-15 04:26:00,
2013-06-14 23:28:00,68.1,60.6,29.96,ENE,66,7.0,10.0,77,0.00,,,0.00,Wunderground v.1.15,2013-06-15 04:28:00,
2013-06-14 23:33:00,67.6,60.5,29.96,East,101,8.0,8.0,78,0.00,,,0.00,Wunderground v.1.15,2013-06-15 04:33:00,
2013-06-14 23:35:00,67.3,60.2,29.96,ESE,107,8.0,8.0,78,0.00,,,0.00,Wunderground v.1.15,2013-06-15 04:35:00,
2013-06-14 23:38:00,67.2,60.1,29.96,ESE,106,8.0,8.0,78,0.00,,,0.00,Wunderground v.1.15,2013-06-15 04:38:00,
2013-06-14 23:41:00,67.1,60.4,29.96,ESE,102,7.0,8.0,79,0.00,,,0.00,Wunderground v.1.15,2013-06-15 04:41:00,
2013-06-14 23:44:00,67.0,59.9,29.96,ESE,113,7.0,8.0,78,0.00,,,0.00,Wunderground v.1.15,2013-06-15 04:44:00,
2013-06-14 23:46:00,67.0,59.9,29.96,ESE,115,8.0,9.0,78,0.00,,,0.00,Wunderground v.1.15,2013-06-15 04:46:00,
2013-06-14 23:48:00,67.1,60.0,29.96,ESE,103,8.0,10.0,78,0.00,,,0.00,Wunderground v.1.15,2013-06-15 04:48:00,
2013-06-14 23:50:00,67.0,59.9,29.96,East,91,8.0,8.0,78,0.00,,,0.00,Wunderground v.1.15,2013-06-15 04:50:00,
2013-06-14 23:54:00,66.6,59.9,29.96,East,100,8.0,9.0,79,0.00,,,0.00,Wunderground v.1.15,2013-06-15 04:54:00,
2013-06-14 23:56:00,66.4,60.0,29.96,East,89,8.0,9.0,80,0.00,,,0.00,Wunderground v.1.15,2013-06-15 04:56:00,
2013-06-14 23:58:00,66.2,59.5,29.96,ESE,116,8.0,9.0,79,0.00,,,0.00,Wunderground v.1.15,2013-06-15 04:58:00,